Regional Weather Roundup
Issued by NWS Kansas City/Pleasant Hill, MO

Home | Current Version | Previous Version | Graphics & Text | Print | Product List | Glossary Off
Versions: 1 2 3 4 5 6 7 8 9 10 11 12 13 14 15 16 17 18 19 20 21 22 23 24 25 26 27 28 29 30 31 32 33 34 35 36 37 38 39 40 41 42 43 44 45 46 47 48 49 50

000
ASUS43 KEAX 310311
RWREAX

WEATHER ROUNDUP FOR EASTERN KANSAS AND NORTHWEST MISSOURI
NATIONAL WEATHER SERVICE KANSAS CITY/PLEASANT HILL MO
1000 PM CDT WED JUL 30 2014

KSZ040-057-103>105-MOZ028-029-037-043-310400-
...KANSAS CITY METROPOLITAN AREA...

CITY           SKY/WX    TMP DP  RH WIND       PRES   REMARKS
K.C. INTL      PTCLDY    69  57  65 N7        30.09R
K.C. DOWNTOWN  CLEAR     72  56  57 S3        30.08R
LEES SUMMIT    PTCLDY    69  61  75 W3        30.09R
OLATHE - IXD   PTCLDY    69  61  75 SW3       30.10R
OLATHE - OJC   PTCLDY    66  60  81 S3        30.09R
LAWRENCE       PTCLDY    64  59  83 NW3       30.09R

$$

MOZ001>008-011>017-020>025-030>033-038>040-044>046-053-054-310400-
...NORTHERN AND CENTRAL MISSOURI...

CITY           SKY/WX    TMP DP  RH WIND       PRES   REMARKS
ST. JOSEPH     CLEAR     65  60  84 NW5       30.09R
MOSBY          PTCLDY    64  61  88 CALM      30.08R
WARRENSBURG    PTCLDY    66  61  82 CALM      30.08S
WHITEMAN AFB   PTCLDY    68  55  61 SW2       30.08R
CLINTON        MOCLDY    64  63  94 CALM      30.08S
SEDALIA        MOCLDY    69  60  73 CALM      30.09R
WARSAW         NOT AVBL
MARSHALL       PTCLDY    72  64  78 CALM      30.09S
CHILLICOTHE      N/A     65  59  81 CALM      30.09R
MOBERLY        PTCLDY    66  57  72 NE5       30.09R
KIRKSVILLE     CLEAR     62  59  90 CALM      30.10R

$$

MOZ041-047>049-056>058-063>065-088>090-097-310400-
...EASTERN AND SOUTHERN MISSOURI...

CITY           SKY/WX    TMP DP  RH WIND       PRES   REMARKS
ST. LOUIS INTL MOCLDY    75  57  53 E3        30.07R
SPIRIT OF STL  MOCLDY    68  59  73 CALM      30.05R
COLUMBIA       MOCLDY    70  59  68 W3        30.08R
JEFFERSON CITY MOCLDY    72  59  63 CALM      30.06R
MEXICO         PTCLDY    66  66 100 CALM      30.08R
HANNIBAL       CLEAR     64  59  82 CALM      30.08S
ROLLA          CLOUDY    64  60  87 W3        30.07R
LEBANON        CLOUDY    64  59  82 CALM      30.09S
OSAGE BEACH    CLOUDY    64  61  88 CALM      30.08R
SPRINGFIELD    CLOUDY    67  65  93 S5        30.08S
BRANSON        CLOUDY    64  64 100 CALM      30.10R
NEVADA         CLOUDY    66  64  94 SW3       30.11R
JOPLIN         CLOUDY    66  65  96 E3        30.09R
WEST PLAINS    LGT RAIN  67  65  93 CALM      30.10R
MALDEN         CLOUDY    73  64  73 SW3       30.07R

$$

IAZ060-094-KSZ022-034>040-054-083-096-NEZ052-066-093-310400-
...KANSAS...SOUTHEAST NEBRASKA AND IOWA...

CITY           SKY/WX    TMP DP  RH WIND       PRES   REMARKS
TOPEKA         CLEAR     65  57  75 NW3       30.10R
MANHATTAN      CLEAR     65  57  75 CALM      30.11R
EMPORIA        PTCLDY    65  62  90 CALM      30.11R
CHANUTE        CLOUDY    66  65  96 N3        30.10R
WICHITA        MOCLDY    67  63  87 NE5       30.12R
OMAHA          PTCLDY    69  58  67 CALM      30.11R
LINCOLN        PTCLDY    71  53  52 CALM      30.12R
FALLS CITY     CLEAR     69  56  62 NW3       30.10R
LAMONI         CLEAR     65  59  81 CALM      30.10R
DES MOINES     CLEAR     70  55  59 NW5       30.09R

$$




USA.gov is the U.S. government's official web portal to all federal, state and local government web resources and services.